Weather in Berezovka

Russia / Belgorod Oblast     50°32′10″N   35°53′33″E
temp.,
°C
wind,
m/s
gust,
m/s
humid.,
%
clouds,
%
prec.,
mm/h
press.,
hPa
HPBL,
m
16 april, fri
fri1600:00+7sse378916 0.1 1013271
03:00+8se378597 0.1 1013420
06:00+7se4987100 0.1 1014460
09:00+8sse6782100 0.1 10151006
12:00+9sse6876100 0.1 1015913
15:00+11sse676892 0.6 10161134
18:00+11sse576560 0.1 10151124
21:00+8s498268 0.3 1016307
17 april, sat
sat1700:00+7sse258986 0.1 1017225
03:00+5ene11885 3.3 101715
06:00+4se359495 0.0 1018167
09:00+6sw447689 0.0 1018735
12:00+9sw345987 0.0 10181317
15:00+9sw456265 0.1 10191177
18:00+7ssw468098 0.1 1019458
21:00+6sw478749 0.4 1019301
18 april, sun
sun1800:00+6ssw4785100 0.1 1019343
03:00+6ssw4885100 0.2 1019352
06:00+5sw3791100 0.5 1019804
09:00+7se6981100 1.3 1018558
12:00+11ssw7106081 0.0 10171221
15:00+12ssw61053100 0.1 10161720
18:00+11wsw2668100 0.3 1016300
21:00+8n1286100 0.4 101772
19 april, mon
mon1900:00+9sse118199 0.1 101723
03:00+8w2284100 0.1 101654
06:00+7w239496 0.0 101677
09:00+9ssw237992 0.0 1016402
12:00+14s4652100 0.8 10151467
15:00+15se3446100 0.9 10141505
18:00+15ene2551100 0.0 1012172
21:00+11ese3780100 0.5 1012222
20 april, tue
tue2000:00+10e51187100 0.2 1009606
03:00+10e81490100 1.4 1005671
06:00+9e101895100 6.3 1000830
09:00+11ese91894100 14.8 9961093
12:00+11s51191100 3.3 995536
15:00+15s1016645 4.3 9961812
18:00+11sse7126967 0.2 9961108
21:00+9sse91482100 0.8 9971287